Glenwood, MN

5:28 AM CDT on October 18, 2017 (GMT -0500)
Glenwood Municipal

Weather History for KGHW - September, 2012

Change the Weather History Date:

Tuesday, September 25, 2012

  Actual Average Record
Temperature  
Mean Temperature 52 °F -  
Max Temperature 66 °F 67 °F 83 °F (1967)
Min Temperature 37 °F 41 °F 31 °F (1985)
Degree Days  
Heating Degree Days 14    
Growing Degree Days 2 (Base 50)    
Moisture  
Dew Point 35 °F    
Average Humidity 58    
Maximum Humidity 93    
Minimum Humidity 26    
Precipitation  
Precipitation 0.00 in - - ()
Sea Level Pressure  
Sea Level Pressure 29.92 in    
Wind  
Wind Speed 7 mph (North)    
Max Wind Speed 10 mph    
Max Gust Speed -    
Visibility 10 miles    
Events      
Averages and records for this station are not official NWS values.
T = Trace of Precipitation, MM = Missing Value Source: NWS Daily Summary

Daily Weather History Graph

Daily Weather History Graph

Search for Another Location

Airport or City:

Trip Planner

Search our weather history database for the weather conditions in past years. The results will help you decide how hot, cold, wet, or windy it might be!

Date:

Astronomy

Sep. 25, 2012 Rise Set
Actual Time 7:12 AM CDT 7:12 PM CDT
Civil Twilight 6:43 AM CDT 7:41 PM CDT
Nautical Twilight 6:08 AM CDT 8:16 PM CDT
Astronomical Twilight 5:32 AM CDT 8:51 PM CDT
Moon 4:47 PM CDT (9/25) 2:23 AM CDT (9/25)
Length of Visible Light 12h 58m
Length of Day
11h 59m
Waxing Gibbous, 80% of the Moon is Illuminated
Sep 25
Waxing Gibbous
Sep 29
Full
Oct 8
Last Quarter
Oct 15
New
Oct 21
First Quarter

Hourly Weather History & Observations

Time (CDT) Temp. Windchill Dew Point Humidity Pressure Visibility Wind Dir Wind Speed Gust Speed Precip Events Conditions
12:33 AM 53.6 °F - 37.4 °F 54% 29.84 in 10.0 mi NNE 8.1 mph - N/A   Clear
1:13 AM 51.8 °F - 37.4 °F 58% 29.84 in 10.0 mi North 9.2 mph - N/A   Clear
1:33 AM 50.0 °F - 39.2 °F 66% 29.85 in 10.0 mi NNE 9.2 mph - N/A   Clear
1:53 AM 50.0 °F - 39.2 °F 66% 29.85 in 10.0 mi NNE 9.2 mph - N/A   Clear
2:14 AM 50.0 °F - 39.2 °F 66% 29.85 in 10.0 mi NNE 10.4 mph - N/A   Clear
2:33 AM 48.2 °F - 37.4 °F 66% 29.86 in 10.0 mi NNE 9.2 mph - N/A   Clear
2:53 AM 48.2 °F - 37.4 °F 66% 29.86 in 10.0 mi North 6.9 mph - N/A   Clear
3:14 AM 46.4 °F 44.3 °F 37.4 °F 71% 29.86 in 10.0 mi North 4.6 mph - N/A   Clear
3:33 AM 44.6 °F 40.7 °F 37.4 °F 76% 29.86 in 10.0 mi North 6.9 mph - N/A   Clear
3:53 AM 44.6 °F 40.7 °F 37.4 °F 76% 29.86 in 10.0 mi NNE 6.9 mph - N/A   Clear
4:14 AM 42.8 °F 38.6 °F 35.6 °F 76% 29.87 in 10.0 mi North 6.9 mph - N/A   Clear
4:33 AM 41.0 °F 36.4 °F 35.6 °F 81% 29.87 in 10.0 mi North 6.9 mph - N/A   Clear
4:53 AM 42.8 °F 38.0 °F 35.6 °F 76% 29.87 in 10.0 mi North 8.1 mph - N/A   Clear
5:14 AM 41.0 °F 35.8 °F 35.6 °F 81% 29.87 in 10.0 mi NNE 8.1 mph - N/A   Clear
5:33 AM 41.0 °F 35.8 °F 35.6 °F 81% 29.87 in 10.0 mi NNE 8.1 mph - N/A   Clear
5:53 AM 39.2 °F 34.2 °F 35.6 °F 87% 29.87 in 10.0 mi North 6.9 mph - N/A   Clear
6:14 AM 37.4 °F 32.1 °F 35.6 °F 93% 29.88 in 10.0 mi North 6.9 mph - N/A   Clear
6:33 AM 37.4 °F 32.1 °F 35.6 °F 93% 29.88 in 10.0 mi North 6.9 mph - N/A   Clear
6:53 AM 37.4 °F 31.4 °F 33.8 °F 87% 29.88 in 10.0 mi North 8.1 mph - N/A   Clear
7:14 AM 37.4 °F 32.8 °F 35.6 °F 93% 29.88 in 10.0 mi North 5.8 mph - N/A   Clear
7:33 AM 37.4 °F 32.1 °F 35.6 °F 93% 29.89 in 10.0 mi North 6.9 mph - N/A   Clear
7:53 AM 37.4 °F 32.1 °F 35.6 °F 93% 29.89 in 10.0 mi NNE 6.9 mph - N/A   Clear
8:14 AM 41.0 °F 36.4 °F 37.4 °F 87% 29.90 in 10.0 mi North 6.9 mph - N/A   Clear
8:33 AM 44.6 °F 40.7 °F 39.2 °F 81% 29.90 in 10.0 mi NNE 6.9 mph - N/A   Clear
8:53 AM 46.4 °F 42.4 °F 39.2 °F 76% 29.92 in 10.0 mi NNE 8.1 mph - N/A   Clear
9:14 AM 48.2 °F - 39.2 °F 71% 29.92 in 10.0 mi NE 5.8 mph - N/A   Clear
9:33 AM 51.8 °F - 39.2 °F 62% 29.93 in 10.0 mi ENE 8.1 mph - N/A   Clear
9:53 AM 51.8 °F - 39.2 °F 62% 29.93 in 10.0 mi ENE 5.8 mph - N/A   Clear
10:14 AM 53.6 °F - 39.2 °F 58% 29.94 in 10.0 mi ENE 5.8 mph - N/A   Clear
10:33 AM 55.4 °F - 39.2 °F 54% 29.95 in 10.0 mi NE 4.6 mph - N/A   Clear
10:53 AM 57.2 °F - 41.0 °F 55% 29.95 in 10.0 mi ESE 3.5 mph - N/A   Clear
11:13 AM 57.2 °F - 39.2 °F 51% 29.96 in 10.0 mi Calm Calm - N/A   Clear
11:33 AM 60.8 °F - 39.2 °F 45% 29.95 in 10.0 mi Calm Calm - N/A   Clear
11:54 AM 60.8 °F - 35.6 °F 39% 29.95 in 10.0 mi North 4.6 mph - N/A   Clear
12:14 PM 60.8 °F - 37.4 °F 42% 29.95 in 10.0 mi East 3.5 mph - N/A   Clear
12:33 PM 60.8 °F - 35.6 °F 39% 29.95 in 10.0 mi NNE 4.6 mph - N/A   Clear
12:54 PM 60.8 °F - 33.8 °F 36% 29.95 in 10.0 mi Calm Calm - N/A   Clear
1:13 PM 62.6 °F - 33.8 °F 34% 29.95 in 10.0 mi NE 4.6 mph - N/A   Clear
2:13 PM 64.4 °F - 30.2 °F 28% 29.93 in 10.0 mi WNW 5.8 mph - N/A   Clear
2:33 PM 64.4 °F - 30.2 °F 28% 29.93 in 10.0 mi West 9.2 mph - N/A   Clear
2:54 PM 64.4 °F - 28.4 °F 26% 29.92 in 10.0 mi WNW 9.2 mph - N/A   Clear
3:13 PM 64.4 °F - 30.2 °F 28% 29.92 in 10.0 mi NNW 6.9 mph - N/A   Clear
3:33 PM 64.4 °F - 32.0 °F 30% 29.92 in 10.0 mi NW 4.6 mph - N/A   Clear
3:54 PM 66.2 °F - 33.8 °F 30% 29.91 in 10.0 mi NW 9.2 mph - N/A   Clear
4:13 PM 66.2 °F - 33.8 °F 30% 29.91 in 10.0 mi NNW 8.1 mph - N/A   Clear
4:33 PM 66.2 °F - 30.2 °F 26% 29.91 in 10.0 mi NNW 10.4 mph - N/A   Clear
4:54 PM 64.4 °F - 28.4 °F 26% 29.92 in 10.0 mi NW 9.2 mph - N/A   Clear
5:13 PM 64.4 °F - 30.2 °F 28% 29.92 in 10.0 mi NW 6.9 mph - N/A   Clear
5:33 PM 64.4 °F - 28.4 °F 26% 29.92 in 10.0 mi NW 8.1 mph - N/A   Clear
5:54 PM 62.6 °F - 30.2 °F 30% 29.92 in 10.0 mi WNW 9.2 mph - N/A   Clear
6:13 PM 62.6 °F - 30.2 °F 30% 29.92 in 10.0 mi NW 9.2 mph - N/A   Clear
6:33 PM 60.8 °F - 30.2 °F 31% 29.93 in 10.0 mi NW 9.2 mph - N/A   Clear
6:54 PM 57.2 °F - 30.2 °F 36% 29.93 in 10.0 mi NW 5.8 mph - N/A   Clear
7:13 PM 55.4 °F - 30.2 °F 38% 29.94 in 10.0 mi WNW 5.8 mph - N/A   Clear
7:54 PM 51.8 °F - 33.8 °F 50% 29.95 in 10.0 mi NW 6.9 mph - N/A   Clear
8:13 PM 50.0 °F - 33.8 °F 54% 29.96 in 10.0 mi NNW 8.1 mph - N/A   Clear
8:34 PM 48.2 °F - 33.8 °F 58% 29.96 in 10.0 mi NW 6.9 mph - N/A   Clear
8:53 PM 46.4 °F 43.5 °F 33.8 °F 62% 29.97 in 10.0 mi NW 5.8 mph - N/A   Clear
9:13 PM 46.4 °F 42.9 °F 33.8 °F 62% 29.97 in 10.0 mi NW 6.9 mph - N/A   Clear
9:34 PM 46.4 °F 43.5 °F 33.8 °F 62% 29.98 in 10.0 mi NW 5.8 mph - N/A   Clear
9:53 PM 44.6 °F 41.4 °F 33.8 °F 66% 29.99 in 10.0 mi NNW 5.8 mph - N/A   Clear
10:13 PM 44.6 °F 40.7 °F 33.8 °F 66% 29.99 in 10.0 mi NW 6.9 mph - N/A   Clear
10:34 PM 42.8 °F 38.6 °F 33.8 °F 70% 30.00 in 10.0 mi NW 6.9 mph - N/A   Clear
10:53 PM 44.6 °F 40.2 °F 33.8 °F 66% 30.00 in 10.0 mi NNW 8.1 mph - N/A   Clear
11:13 PM 42.8 °F 38.0 °F 33.8 °F 70% 30.00 in 10.0 mi NW 8.1 mph - N/A   Clear
11:34 PM 44.6 °F 40.7 °F 35.6 °F 71% 30.01 in 10.0 mi NNW 6.9 mph - N/A   Clear
11:53 PM 44.6 °F 41.4 °F 33.8 °F 66% 30.01 in 10.0 mi NNW 5.8 mph - N/A   Clear